Flag for Norway Weather past 2 weeks in Harstad, Norway

Now
39 °F

Passing clouds.


Feels Like: 36 °F
Forecast: 38 / 40 °F
Wind: 5 mph from Southwest

Location: Evenes

Current Time: Apr 18, 2015 at 6:08:35 AM

Latest Report: Apr 18, 2015 at 4:46 AM


Visibility: N/A

Pressure: 30.15 "Hg

Humidity: 81%

Dew point: 34 °F

Location of HarstadLocation

Historic Weather in Harstad — Graph

°F

Harstad temperature yesterday

Maximum temperature yesterday: 43 °F (at 11:50 AM)
Minimum temperature yesterday: 30 °F (at 2:20 AM)
Average temperature yesterday: 37 °F

Past Weeks' High & Low Weather Summary

 TemperatureHumidityPressure
High46 °F (Apr 16, 12:50 PM)100% (Apr 3, 4:20 AM)30.18 "Hg (Apr 3, 4:20 AM)
Low23 °F (Apr 4, 6:20 AM)41% (Apr 11, 9:20 PM)29.21 "Hg (Apr 10, 10:50 AM)
Average36 °F79%29.67 "Hg
* Reported Apr 3 4:20 AM — Apr 18 4:20 AM, Harstad, Weather by CustomWeather, © 2015

Note: Actual official high and low records may vary slightly from our data, if they occured in-between our weather recording intervals... More about our weather records

Advertising

Harstad weather history for previous 24 hours

 ConditionsComfort  
Time TempWeatherWind HumidityBarometerVisibility
4:20 AM
Sat, Apr 18
39 °FMostly cloudy.12 mph87%30.15 "HgN/A
3:50 AM39 °FOvercast.14 mph87%30.15 "HgN/A
3:20 AM39 °FMostly cloudy.14 mph87%30.15 "HgN/A
2:50 AM39 °FOvercast.12 mph87%30.15 "HgN/A
2:20 AM39 °FMostly cloudy.8 mph87%30.15 "HgN/A
1:50 AM39 °FMostly cloudy.3 mph87%30.18 "HgN/A
1:20 AM39 °FDrizzle. Mostly cloudy.5 mph87%30.18 "HgN/A
12:50 AM39 °FOvercast.8 mph87%30.18 "HgN/A
11:50 PM
Fri, Apr 17
39 °FOvercast.10 mph87%30.18 "HgN/A
10:50 PM39 °FLight rain. Overcast.12 mph87%30.18 "HgN/A
9:50 PM39 °FPartly sunny.13 mph87%30.18 "HgN/A
8:50 PM39 °FBroken clouds.3 mph87%30.15 "HgN/A
7:50 PM39 °FBroken clouds.5 mph87%30.15 "HgN/A
6:50 PM41 °FBroken clouds.10 mph81%30.15 "HgN/A
5:50 PM41 °FPartly sunny.9 mph81%30.15 "HgN/A
4:50 PM41 °FBroken clouds.8 mph76%30.15 "HgN/A
3:50 PM41 °FPartly sunny.10 mph81%30.12 "HgN/A
2:50 PM41 °FOvercast.9 mph76%30.12 "HgN/A
1:50 PM41 °FPartly sunny.5 mph76%30.12 "HgN/A
12:50 PM43 °FPartly sunny.7 mph76%30.09 "HgN/A
11:50 AM43 °FPartly sunny.8 mph71%30.09 "HgN/A
10:50 AM41 °FPartly sunny.7 mph76%30.07 "HgN/A
9:50 AM39 °FOvercast.6 mph81%30.07 "HgN/A
8:50 AM37 °FOvercast.3 mph87%30.04 "HgN/A
7:50 AM36 °FPartly sunny.6 mph87%30.04 "HgN/A
6:50 AM34 °FPartly sunny.No wind93%30.01 "HgN/A
6:20 AM34 °FPartly sunny.No wind87%30.01 "HgN/A
Weather by CustomWeather, © 2015

See weather overviewHow to use our weather pages